RYR4982 LGTS-LGSA

Flight info

Callsign RYR4982
Flight time 0h 57m
Altitude 31000
Route LEKPO UL617 SKP UM749 ATV UP169 MANOK UL612 RUSOS
Aircraft B738/M-SDE2E3FGHIRWXY/LB1

Departure

Time 2026-04-29 23:56
Airport Thessaloniki Macedonia International Airport (LGTS)

Arrival

Time 2026-04-30 00:54
Airport Chania International Airport (LGSA)
Time Latitude Longitude Altitude Speed Heading
2026-04-29 23:40 40.52456 22.97387 8 ft 0 kts 46°
2026-04-29 23:48 40.52452 22.97381 8 ft 2 kts 46°
2026-04-29 23:48 40.52445 22.97372 8 ft 2 kts 46°
2026-04-29 23:48 40.52433 22.97360 8 ft 2 kts 22°
2026-04-29 23:48 40.52418 22.97355 8 ft 2 kts
2026-04-29 23:49 40.52403 22.97356 8 ft 2 kts 345°
2026-04-29 23:49 40.52389 22.97364 8 ft 2 kts 326°
2026-04-29 23:49 40.52382 22.97370 8 ft 1 kts 314°
2026-04-29 23:49 40.52379 22.97375 8 ft 0 kts 316°
2026-04-29 23:51 40.52392 22.97358 8 ft 6 kts 304°
2026-04-29 23:51 40.52391 22.97273 8 ft 12 kts 256°
2026-04-29 23:51 40.52363 22.97171 8 ft 12 kts 229°
2026-04-29 23:52 40.52274 22.97105 8 ft 17 kts 201°
2026-04-29 23:52 40.52175 22.97018 8 ft 17 kts 248°
2026-04-29 23:52 40.52187 22.96855 8 ft 19 kts 285°
2026-04-29 23:52 40.52222 22.96668 8 ft 21 kts 284°
2026-04-29 23:53 40.52257 22.96481 8 ft 20 kts 284°
2026-04-29 23:53 40.52294 22.96292 8 ft 22 kts 284°
2026-04-29 23:53 40.52330 22.96099 8 ft 21 kts 283°
2026-04-29 23:53 40.52367 22.95907 8 ft 21 kts 284°
2026-04-29 23:54 40.52404 22.95713 8 ft 22 kts 284°
2026-04-29 23:54 40.52441 22.95520 8 ft 21 kts 283°
2026-04-29 23:54 40.52477 22.95331 8 ft 20 kts 284°
2026-04-29 23:54 40.52510 22.95151 8 ft 20 kts 283°
2026-04-29 23:55 40.52544 22.94977 8 ft 19 kts 284°
2026-04-29 23:55 40.52537 22.94831 8 ft 14 kts 212°
2026-04-29 23:55 40.52441 22.94800 8 ft 13 kts 179°
2026-04-29 23:55 40.52387 22.94908 8 ft 26 kts 104°
2026-04-29 23:56 40.52283 22.95458 8 ft 94 kts 104°
2026-04-29 23:56 40.52077 22.96546 8 ft 148 kts 104°
2026-04-29 23:56 40.51801 22.97999 285 ft 168 kts 104°
2026-04-29 23:56 40.51529 22.99457 995 ft 165 kts 103°
2026-04-29 23:57 40.51231 23.00973 1468 ft 178 kts 104°
2026-04-29 23:57 40.50906 23.02598 1849 ft 192 kts 103°
2026-04-29 23:57 40.50559 23.04371 2241 ft 207 kts 103°
2026-04-29 23:57 40.50189 23.06266 2737 ft 218 kts 104°
2026-04-29 23:58 40.49553 23.08074 3366 ft 221 kts 132°
2026-04-29 23:58 40.48289 23.09191 3991 ft 223 kts 162°
2026-04-29 23:58 40.46766 23.09498 4583 ft 226 kts 182°
2026-04-29 23:58 40.45216 23.09137 5184 ft 228 kts 203°
2026-04-29 23:59 40.43815 23.08166 5834 ft 227 kts 213°
2026-04-29 23:59 40.42451 23.07061 6500 ft 229 kts 213°
2026-04-29 23:59 40.41086 23.06001 7134 ft 231 kts 212°
2026-04-29 23:59 40.39673 23.04948 7763 ft 235 kts 211°
2026-04-30 00:00 40.38205 23.03984 8385 ft 239 kts 201°
2026-04-30 00:00 40.36538 23.03669 8933 ft 248 kts 174°
2026-04-30 00:00 40.34828 23.04309 9313 ft 264 kts 159°
2026-04-30 00:00 40.33097 23.05277 9683 ft 279 kts 158°
2026-04-30 00:01 40.31236 23.06298 10101 ft 293 kts 159°
2026-04-30 00:01 40.29298 23.07299 10545 ft 306 kts 160°
2026-04-30 00:01 40.27312 23.08287 11119 ft 313 kts 161°
2026-04-30 00:01 40.25248 23.09300 11774 ft 318 kts 161°
2026-04-30 00:02 40.23149 23.10328 12497 ft 321 kts 161°
2026-04-30 00:02 40.21054 23.11356 13218 ft 324 kts 161°
2026-04-30 00:02 40.18914 23.12409 13935 ft 328 kts 161°
2026-04-30 00:02 40.16776 23.13463 14607 ft 332 kts 162°
2026-04-30 00:03 40.14593 23.14541 15300 ft 336 kts 162°
2026-04-30 00:03 40.12402 23.15622 15979 ft 340 kts 162°
2026-04-30 00:03 40.10175 23.16722 16662 ft 344 kts 162°
2026-04-30 00:03 40.07915 23.17839 17298 ft 348 kts 162°
2026-04-30 00:04 40.05633 23.18965 17927 ft 353 kts 162°
2026-04-30 00:04 40.03318 23.20107 18582 ft 355 kts 162°
2026-04-30 00:04 40.00986 23.21256 19209 ft 359 kts 162°
2026-04-30 00:04 39.98644 23.22407 19811 ft 362 kts 162°
2026-04-30 00:05 39.96258 23.23578 20439 ft 365 kts 162°
2026-04-30 00:05 39.93887 23.24743 21007 ft 368 kts 162°
2026-04-30 00:05 39.91445 23.25941 21597 ft 371 kts 162°
2026-04-30 00:05 39.89007 23.27137 22133 ft 375 kts 163°
2026-04-30 00:06 39.86546 23.28344 22689 ft 377 kts 163°
2026-04-30 00:06 39.84094 23.29546 23198 ft 381 kts 163°
2026-04-30 00:06 39.81560 23.30786 23720 ft 384 kts 163°
2026-04-30 00:06 39.79036 23.32021 24237 ft 386 kts 163°
2026-04-30 00:07 39.76532 23.33245 24708 ft 390 kts 163°
2026-04-30 00:07 39.73936 23.34514 25168 ft 393 kts 163°
2026-04-30 00:07 39.71356 23.35773 25633 ft 397 kts 163°
2026-04-30 00:07 39.68757 23.37039 26104 ft 399 kts 163°
2026-04-30 00:08 39.66131 23.38318 26507 ft 403 kts 163°
2026-04-30 00:08 39.63473 23.39611 27012 ft 405 kts 163°
2026-04-30 00:08 39.60800 23.40911 27413 ft 408 kts 163°
2026-04-30 00:08 39.58115 23.42215 27868 ft 410 kts 163°
2026-04-30 00:09 39.55437 23.43515 28253 ft 414 kts 163°
2026-04-30 00:09 39.52700 23.44842 28655 ft 417 kts 163°
2026-04-30 00:09 39.49947 23.46176 29059 ft 419 kts 162°
2026-04-30 00:09 39.47158 23.47525 29453 ft 422 kts 163°
2026-04-30 00:10 39.44366 23.48876 29804 ft 425 kts 162°
2026-04-30 00:10 39.41584 23.50221 30241 ft 426 kts 163°
2026-04-30 00:10 39.38793 23.51571 30586 ft 428 kts 163°
2026-04-30 00:10 39.35984 23.52931 30995 ft 428 kts 163°
2026-04-30 00:11 39.33173 23.54291 31027 ft 429 kts 162°
2026-04-30 00:11 39.27602 23.56989 31032 ft 424 kts 162°
2026-04-30 00:12 39.22033 23.59668 31031 ft 425 kts 163°
2026-04-30 00:12 39.16368 23.61878 31032 ft 421 kts 172°
2026-04-30 00:13 39.10578 23.62976 31030 ft 419 kts 177°
2026-04-30 00:13 39.04758 23.63742 31030 ft 418 kts 177°
2026-04-30 00:14 38.98938 23.64506 31028 ft 417 kts 177°
2026-04-30 00:14 38.93142 23.65309 31028 ft 417 kts 178°
2026-04-30 00:15 38.87345 23.66140 31026 ft 417 kts 177°
2026-04-30 00:15 38.81536 23.66986 31027 ft 418 kts 177°
2026-04-30 00:16 38.75732 23.67836 31026 ft 418 kts 177°
2026-04-30 00:16 38.69894 23.68692 31026 ft 418 kts 177°
2026-04-30 00:17 38.64081 23.69544 31023 ft 417 kts 177°
2026-04-30 00:17 38.58265 23.70393 31025 ft 417 kts 177°
2026-04-30 00:18 38.52449 23.71241 31025 ft 417 kts 177°
2026-04-30 00:18 38.46652 23.72086 31027 ft 419 kts 177°
2026-04-30 00:19 38.40841 23.72931 31025 ft 418 kts 177°
2026-04-30 00:19 38.34994 23.73778 31027 ft 419 kts 177°
2026-04-30 00:20 38.29221 23.74615 31028 ft 418 kts 177°
2026-04-30 00:20 38.23412 23.75456 31028 ft 418 kts 177°
2026-04-30 00:21 38.17610 23.76293 31029 ft 418 kts 177°
2026-04-30 00:21 38.11776 23.77135 31030 ft 419 kts 176°
2026-04-30 00:22 38.05941 23.77979 31029 ft 420 kts 177°
2026-04-30 00:22 38.00121 23.78819 31035 ft 419 kts 176°
2026-04-30 00:23 37.94300 23.79659 31035 ft 419 kts 177°
2026-04-30 00:23 37.88489 23.80497 31040 ft 419 kts 177°
2026-04-30 00:24 37.82693 23.81397 31038 ft 420 kts 176°
2026-04-30 00:24 37.76874 23.82348 31026 ft 422 kts 176°
2026-04-30 00:25 37.70988 23.83308 31031 ft 422 kts 176°
2026-04-30 00:25 37.65126 23.84259 31031 ft 422 kts 176°
2026-04-30 00:26 37.59259 23.85204 31022 ft 423 kts 176°
2026-04-30 00:26 37.53404 23.86142 31025 ft 424 kts 177°
2026-04-30 00:27 37.47480 23.87089 31025 ft 425 kts 177°
2026-04-30 00:27 37.41568 23.88032 31026 ft 426 kts 177°
2026-04-30 00:28 37.35638 23.88977 31018 ft 427 kts 177°
2026-04-30 00:28 37.29720 23.89918 31027 ft 427 kts 177°
2026-04-30 00:29 37.23806 23.90858 31025 ft 426 kts 177°
2026-04-30 00:29 37.17872 23.91797 31021 ft 428 kts 177°
2026-04-30 00:30 37.11909 23.92740 31028 ft 431 kts 177°
2026-04-30 00:30 37.05922 23.93687 31031 ft 431 kts 178°
2026-04-30 00:31 36.99934 23.94633 31024 ft 432 kts 178°
2026-04-30 00:31 36.93948 23.95578 31029 ft 432 kts 178°
2026-04-30 00:32 36.87926 23.96528 31021 ft 425 kts 178°
2026-04-30 00:32 36.82105 23.97452 30851 ft 419 kts 178°
2026-04-30 00:32 36.79170 23.97910 30483 ft 419 kts 178°
2026-04-30 00:33 36.76294 23.98359 30026 ft 416 kts 177°
2026-04-30 00:33 36.73421 23.98808 29545 ft 413 kts 177°
2026-04-30 00:33 36.70542 23.99259 29060 ft 409 kts 177°
2026-04-30 00:33 36.67702 23.99705 28593 ft 406 kts 177°
2026-04-30 00:34 36.64945 24.00136 28137 ft 402 kts 177°
2026-04-30 00:34 36.62156 24.00571 27662 ft 399 kts 177°
2026-04-30 00:34 36.59405 24.01000 27200 ft 396 kts 176°
2026-04-30 00:34 36.56633 24.01433 26735 ft 393 kts 176°
2026-04-30 00:35 36.53920 24.01855 26270 ft 390 kts 176°
2026-04-30 00:35 36.51231 24.02274 25811 ft 387 kts 176°
2026-04-30 00:35 36.48577 24.02687 25353 ft 384 kts 176°
2026-04-30 00:35 36.45937 24.03118 24878 ft 382 kts 174°
2026-04-30 00:36 36.43347 24.03835 24409 ft 382 kts 164°
2026-04-30 00:36 36.40918 24.05215 23953 ft 382 kts 149°
2026-04-30 00:36 36.38816 24.07233 23408 ft 383 kts 136°
2026-04-30 00:36 36.37045 24.09656 22946 ft 381 kts 129°
2026-04-30 00:37 36.35404 24.12239 22496 ft 379 kts 127°
2026-04-30 00:37 36.33834 24.14842 22054 ft 376 kts 126°
2026-04-30 00:37 36.32274 24.17477 21602 ft 373 kts 126°
2026-04-30 00:37 36.30751 24.20054 21168 ft 370 kts 126°
2026-04-30 00:38 36.29241 24.22602 20733 ft 368 kts 126°
2026-04-30 00:38 36.27725 24.25147 20292 ft 365 kts 126°
2026-04-30 00:38 36.26219 24.27662 19856 ft 363 kts 126°
2026-04-30 00:38 36.24669 24.30141 19417 ft 360 kts 130°
2026-04-30 00:39 36.22912 24.32296 18985 ft 356 kts 143°
2026-04-30 00:39 36.20761 24.33800 18563 ft 351 kts 160°
2026-04-30 00:39 36.18437 24.34601 18141 ft 346 kts 172°
2026-04-30 00:39 36.16031 24.34916 17687 ft 343 kts 179°
2026-04-30 00:40 36.13664 24.34765 17260 ft 339 kts 189°
2026-04-30 00:40 36.11367 24.34233 16837 ft 335 kts 194°
2026-04-30 00:40 36.09092 24.33542 16415 ft 332 kts 196°
2026-04-30 00:40 36.06844 24.32827 15991 ft 330 kts 196°
2026-04-30 00:41 36.04619 24.32138 15574 ft 328 kts 195°
2026-04-30 00:41 36.02404 24.31480 15149 ft 327 kts 195°
2026-04-30 00:41 36.00209 24.30848 14738 ft 324 kts 194°
2026-04-30 00:41 35.97999 24.30224 14330 ft 322 kts 194°
2026-04-30 00:42 35.95815 24.29614 13919 ft 321 kts 194°
2026-04-30 00:42 35.93621 24.29001 13502 ft 319 kts 194°
2026-04-30 00:42 35.91472 24.28402 13102 ft 317 kts 194°
2026-04-30 00:42 35.89288 24.27792 12644 ft 317 kts 194°
2026-04-30 00:43 35.87118 24.27185 12207 ft 316 kts 194°
2026-04-30 00:43 35.84989 24.26590 11797 ft 314 kts 194°
2026-04-30 00:43 35.82856 24.25994 11393 ft 312 kts 194°
2026-04-30 00:43 35.80736 24.25403 10997 ft 310 kts 194°
2026-04-30 00:44 35.78620 24.24814 10601 ft 308 kts 194°
2026-04-30 00:44 35.76515 24.24227 10208 ft 306 kts 194°
2026-04-30 00:44 35.74439 24.23653 9858 ft 302 kts 193°
2026-04-30 00:44 35.72361 24.23587 9516 ft 300 kts 167°
2026-04-30 00:45 35.70521 24.24767 9236 ft 295 kts 135°
2026-04-30 00:45 35.69462 24.26861 8962 ft 287 kts 107°
2026-04-30 00:45 35.68945 24.29243 8554 ft 287 kts 104°
2026-04-30 00:45 35.68300 24.31572 8208 ft 285 kts 113°
2026-04-30 00:46 35.67341 24.33685 7847 ft 283 kts 124°
2026-04-30 00:46 35.66071 24.35523 7506 ft 281 kts 136°
2026-04-30 00:46 35.64555 24.37049 7170 ft 279 kts 143°
2026-04-30 00:46 35.62926 24.38349 6817 ft 277 kts 149°
2026-04-30 00:47 35.61208 24.39490 6474 ft 276 kts 153°
2026-04-30 00:47 35.59458 24.40472 6134 ft 274 kts 158°
2026-04-30 00:47 35.57642 24.41210 5802 ft 272 kts 165°
2026-04-30 00:47 35.55811 24.41693 5475 ft 270 kts 170°
2026-04-30 00:48 35.53937 24.41988 5144 ft 268 kts 175°
2026-04-30 00:48 35.52053 24.42082 4803 ft 266 kts 181°
2026-04-30 00:48 35.50219 24.41936 4599 ft 259 kts 187°
2026-04-30 00:48 35.48444 24.41600 4379 ft 254 kts 191°
2026-04-30 00:49 35.46793 24.40881 4171 ft 245 kts 216°
2026-04-30 00:49 35.45796 24.39282 3990 ft 233 kts 253°
2026-04-30 00:49 35.45723 24.37378 3812 ft 223 kts 283°
2026-04-30 00:49 35.46276 24.35629 3605 ft 215 kts 295°
2026-04-30 00:50 35.46872 24.33961 3331 ft 210 kts 292°
2026-04-30 00:50 35.47403 24.32329 3110 ft 204 kts 291°
2026-04-30 00:50 35.47926 24.30715 2908 ft 198 kts 291°
2026-04-30 00:50 35.48434 24.29164 2711 ft 192 kts 292°
2026-04-30 00:51 35.48931 24.27661 2522 ft 186 kts 292°
2026-04-30 00:51 35.49404 24.26234 2333 ft 172 kts 292°
2026-04-30 00:51 35.49836 24.24934 2095 ft 158 kts 292°
2026-04-30 00:51 35.50254 24.23703 1820 ft 153 kts 294°
2026-04-30 00:52 35.50696 24.22536 1549 ft 149 kts 296°
2026-04-30 00:52 35.51112 24.21372 1290 ft 146 kts 292°
2026-04-30 00:52 35.51505 24.20184 1126 ft 149 kts 291°
2026-04-30 00:52 35.51876 24.18996 940 ft 149 kts 291°
2026-04-30 00:53 35.52266 24.17784 715 ft 151 kts 291°
2026-04-30 00:53 35.52651 24.16588 505 ft 149 kts 291°
2026-04-30 00:53 35.53002 24.15506 465 ft 107 kts 291°
2026-04-30 00:53 35.53214 24.14854 456 ft 64 kts 291°
2026-04-30 00:54 35.53370 24.14378 445 ft 38 kts 291°
2026-04-30 00:54 35.53448 24.14266 441 ft 16 kts 17°
2026-04-30 00:54 35.53567 24.14325 432 ft 17 kts 22°
2026-04-30 00:54 35.53652 24.14367 427 ft 13 kts 20°
2026-04-30 00:55 35.53701 24.14313 424 ft 12 kts 290°
2026-04-30 00:55 35.53740 24.14193 423 ft 17 kts 291°
2026-04-30 00:55 35.53836 24.13900 417 ft 19 kts 291°
2026-04-30 00:56 35.53877 24.13845 415 ft 8 kts 13°
2026-04-30 00:56 35.53927 24.13868 413 ft 4 kts 22°
2026-04-30 00:56 35.53929 24.13869 413 ft 0 kts 22°